EDT,Max TemperatureF,Mean TemperatureF,Min TemperatureF,Max Dew PointF,MeanDew PointF,Min DewpointF,Max Humidity, Mean Humidity, Min Humidity, Max Sea Level PressureIn, Mean Sea Level PressureIn, Min Sea Level PressureIn, Max VisibilityMiles, Mean VisibilityMiles, Min VisibilityMiles, Max Wind SpeedMPH, Mean Wind SpeedMPH, Max Gust SpeedMPH,PrecipitationIn, CloudCover, Events, WindDirDegrees
2012-10-1,60,56,53,61,56,50,100,96,72,29.94,29.84,29.77,10,9,3,10,4,20,0.12,7,Rain,158
2012-10-2,78,69,60,70,64,61,100,91,61,30.02,29.87,29.78,10,9,1,13,6,20,0.20,5,Rain,182
2012-10-3,71,65,59,63,60,55,100,88,60,30.25,30.16,30.03,10,10,10,8,4,,0.00,4,,212
2012-10-4,71,63,55,61,55,52,100,80,53,30.35,30.30,30.25,10,10,10,9,3,,0.00,3,,268
2012-10-5,73,62,51,61,54,52,100,81,47,30.30,30.20,30.08,10,10,7,9,3,,0.00,1,,219
2012-10-6,60,52,44,59,50,43,100,93,82,30.12,30.07,30.02,10,8,0,12,5,,0.00,6,Fog-Rain,301
2012-10-7,50,44,37,46,42,36,100,93,66,30.17,30.11,30.04,10,10,10,9,2,16,0.04,6,Rain,325
2012-10-8,44,42,41,45,42,37,100,99,87,30.22,30.17,30.14,10,8,0,6,1,,0.29,7,Fog-Rain,36
2012-10-9,53,47,41,48,44,41,100,94,72,30.18,30.12,30.07,10,7,0,7,1,,0.00,6,Fog,181
2012-10-10,53,47,41,52,47,39,100,97,82,30.23,30.11,30.04,10,10,3,16,8,22,0.00,5,Rain,248
2012-10-11,62,48,33,41,37,34,100,71,37,30.30,30.26,30.22,10,10,10,9,3,,0.00,0,,223
2012-10-12,60,53,46,45,41,37,87,67,48,30.37,30.30,30.24,10,10,7,10,3,,0.00,3,,315
2012-10-13,68,56,44,52,46,39,81,68,56,30.38,30.32,30.27,10,10,10,13,5,18,0.00,0,,179
2012-10-14,68,60,51,61,52,46,100,75,60,30.25,30.14,29.98,10,10,7,23,10,31,0.02,4,Rain,181
2012-10-15,62,54,46,61,50,41,100,79,51,30.00,29.94,29.91,10,10,4,18,7,28,0.23,5,Rain,263
2012-10-16,64,52,39,41,39,36,100,67,34,30.05,29.98,29.92,10,10,10,8,2,,0.00,0,,277
2012-10-17,68,55,42,46,43,37,87,62,37,29.99,29.92,29.80,10,10,10,15,5,26,0.00,0,,185
2012-10-18,68,60,51,54,47,41,88,68,45,29.83,29.79,29.75,10,10,10,30,13,43,0.00,4,Rain,196
2012-10-19,62,52,42,43,37,32,82,57,34,29.82,29.76,29.70,10,10,10,22,8,31,0.00,3,,218
2012-10-20,53,48,42,41,40,37,93,76,62,30.03,29.90,29.80,10,10,10,10,5,,0.00,7,,260
2012-10-21,64,50,37,45,42,37,100,78,45,30.20,30.15,30.03,10,10,7,8,1,,0.00,2,,227
2012-10-22,73,58,44,50,47,43,93,66,41,30.28,30.23,30.20,10,10,10,6,3,,0.00,0,,212
2012-10-23,73,62,51,54,51,48,88,69,47,30.24,30.20,30.17,10,10,10,13,5,18,0.00,0,,214
2012-10-24,77,64,51,52,49,45,88,61,38,30.28,30.21,30.17,10,10,10,7,3,,0.00,0,,205
2012-10-25,78,66,53,52,47,41,77,52,26,30.21,30.15,30.12,10,10,10,9,5,16,0.00,0,,181
2012-10-26,71,62,53,55,53,50,94,67,50,30.17,30.10,30.02,10,10,10,7,3,,0.00,3,,95
2012-10-27,60,51,42,55,48,43,100,98,77,30.02,29.98,29.95,10,5,0,13,5,22,0.00,8,Fog-Rain,348
2012-10-28,42,38,33,43,40,34,100,100,100,29.97,29.89,29.85,10,4,0,13,9,20,0.49,8,Fog-Rain-Snow,338
2012-10-29,33,33,32,34,34,32,100,100,100,29.88,29.78,29.61,4,2,1,21,11,32,0.01,8,Snow,309
2012-10-30,35,34,32,34,33,32,100,100,93,29.66,29.54,29.48,5,2,0,23,16,37,0.03,8,Snow,273
2012-10-31,37,35,33,36,34,34,100,97,87,29.83,29.73,29.66,10,6,1,14,9,20,0.00,8,Rain-Snow,264